This is the latest recevied weather packets stored in our database for station/object AC5CM. If no packets are shown the sender has not sent any weather packets the latest 10 day(s).
| Time | Temp. | Humidity | Pressure | Rain* | Wind** | Luminosity | Snow |
|---|---|---|---|---|---|---|---|
| 1777491621 | 30.56° C | 64% | 1011.9 hPa | 0 mm | - | - | - |
| 1777491320 | 30.56° C | 66% | 1011.9 hPa | 0 mm | - | - | - |
| 1777491016 | 31.11° C | 64% | 1012.2 hPa | 0 mm | - | - | - |
| 1777490711 | 31.11° C | 64% | 1011.8 hPa | 0 mm | - | - | - |
| 1777490409 | 30.56° C | 68% | 1011.8 hPa | 0 mm | - | - | - |
| 1777490105 | 30.56° C | 65% | 1012 hPa | 0 mm | - | - | - |
| 1777489803 | 30° C | 68% | 1012 hPa | 0 mm | - | - | - |
| 1777489500 | 30° C | 68% | 1012.3 hPa | 0 mm | - | - | - |
| 1777489196 | 30.56° C | 67% | 1012.4 hPa | 0 mm | - | - | - |
| 1777488893 | 30.56° C | 67% | 1012.4 hPa | 0 mm | - | - | - |
| 1777488590 | 30.56° C | 68% | 1012.7 hPa | 0 mm | - | - | - |
| 1777488288 | 30° C | 68% | 1012.6 hPa | 0 mm | - | - | - |
| 1777487986 | 29.44° C | 69% | 1012.8 hPa | 0 mm | - | - | - |
| 1777487683 | 29.44° C | 69% | 1012.7 hPa | 0 mm | - | - | - |
| 1777487380 | 29.44° C | 70% | 1012.7 hPa | 0 mm | - | - | - |
| 1777487078 | 30° C | 70% | 1012.6 hPa | 0 mm | - | - | - |
| 1777486778 | 30° C | 69% | 1012.7 hPa | 0 mm | - | - | - |
| 1777486477 | 30.56° C | 68% | 1013.1 hPa | 0 mm | - | - | - |
| 1777486174 | 31.11° C | 66% | 1013 hPa | 0 mm | - | - | - |
| 1777485872 | 30.56° C | 67% | 1013 hPa | 0 mm | - | - | - |
| 1777485566 | 30.56° C | 68% | 1013.1 hPa | 0 mm | - | - | - |
| 1777485263 | 30.56° C | 69% | 1013.2 hPa | 0 mm | - | - | - |
| 1777484960 | 30° C | 68% | 1013.4 hPa | 0 mm | - | - | - |
| 1777484656 | 30° C | 68% | 1013.6 hPa | 0 mm | - | - | - |
| 1777484353 | 30° C | 70% | 1013.6 hPa | 0 mm | - | - | - |
* Rain latest hour (hover to see other rain measurements)
** Current wind speed in m/s (hover to see current wind gust speed)